| time (UTC) | temp F | wind direction | speed knots | gust knots | rain 1hr in | rain 24hr in | rain mn in | humidity % | barometer mb |
| 20260904211614 | 80 | 10 | 3.5 | 8.7 | 0.12 | 0.17 | 0.12 | 89 | 1014.5 |
| 20260904211055 | 81 | 358 | 3.5 | 8.7 | 0.10 | 0.15 | 0.10 | 86 | 1014.7 |
| 20260904205614 | 83 | 263 | 3.5 | 10.4 | 0.00 | 0.05 | 0.00 | 82 | 1014.7 |
| 20260904204615 | 85 | 200 | 6.1 | 13.9 | 0.00 | 0.05 | 0.00 | 78 | 1014.1 |
| 20260904203614 | 88 | 156 | 6.1 | 13.9 | 0.00 | 0.05 | 0.00 | 72 | 1013.9 |
| 20260904202615 | 92 | 175 | 3.5 | 7.8 | 0.00 | 0.05 | 0.00 | 65 | 1013.3 |
| 20260904201615 | 94 | 249 | 2.6 | 7.0 | 0.00 | 0.05 | 0.00 | 62 | 1013.2 |
| 20260904201051 | 91 | 195 | 4.3 | 10.4 | 0.00 | 0.05 | 0.00 | 65 | 1013.1 |
| 20260904195615 | 92 | 227 | 6.1 | 13.0 | 0.00 | 0.05 | 0.00 | 63 | 1013.2 |
| 20260904195052 | 94 | 190 | 4.3 | 8.7 | 0.00 | 0.05 | 0.00 | 63 | 1013.5 |
| 20260904193610 | 94 | 204 | 3.5 | 7.8 | 0.00 | 0.05 | 0.00 | 64 | 1013.6 |
| 20260904192611 | 91 | 222 | 4.3 | 8.7 | 0.00 | 0.05 | 0.00 | 67 | 1013.9 |
| 20260904191611 | 91 | 263 | 4.3 | 8.7 | 0.00 | 0.05 | 0.00 | 66 | 1014.1 |
| 20260904190607 | 92 | 246 | 2.6 | 7.8 | 0.00 | 0.05 | 0.00 | 64 | 1014.0 |
| 20260904185607 | 95 | 157 | 2.6 | 7.8 | 0.00 | 0.05 | 0.00 | 60 | 1014.1 |
| 20260904184609 | 95 | 202 | 4.3 | 8.7 | 0.00 | 0.05 | 0.00 | 61 | 1014.2 |
| 20260904183602 | 93 | 233 | 1.7 | 6.1 | 0.00 | 0.05 | 0.00 | 64 | 1014.3 |
| 20260904182603 | 92 | 223 | 1.7 | 3.5 | 0.00 | 0.05 | 0.00 | 64 | 1014.6 |
| 20260904181601 | 92 | 225 | 3.5 | 7.8 | 0.00 | 0.05 | 0.00 | 61 | 1014.7 |
| 20260904181032 | 94 | 139 | 3.5 | 10.4 | 0.00 | 0.05 | 0.00 | 60 | 1014.7 |
| 20260904180027 | 92 | 190 | 3.5 | 8.7 | 0.00 | 0.05 | 0.00 | 66 | 1014.9 |
| 20260904174545 | 93 | 145 | 3.5 | 7.8 | 0.00 | 0.05 | 0.00 | 63 | 1015.0 |
| 20260904173537 | 94 | 147 | 3.5 | 7.8 | 0.00 | 0.05 | 0.00 | 62 | 1014.9 |
| 20260904172536 | 94 | 194 | 4.3 | 12.2 | 0.00 | 0.05 | 0.00 | 64 | 1015.1 |
| 20260904171537 | 92 | 151 | 4.3 | 9.6 | 0.00 | 0.05 | 0.00 | 65 | 1015.2 |
| 20260904170536 | 94 | 178 | 3.5 | 9.6 | 0.00 | 0.05 | 0.00 | 63 | 1015.3 |
| 20260904165534 | 92 | 201 | 2.6 | 6.1 | 0.00 | 0.05 | 0.00 | 67 | 1015.5 |
| 20260904164536 | 91 | 173 | 4.3 | 9.6 | 0.00 | 0.05 | 0.00 | 69 | 1015.7 |
| 20260904163535 | 90 | 236 | 3.5 | 8.7 | 0.00 | 0.05 | 0.00 | 70 | 1015.8 |
| 20260904162536 | 93 | 224 | 2.6 | 6.1 | 0.00 | 0.05 | 0.00 | 67 | 1015.9 |
| 20260904161533 | 92 | 217 | 4.3 | 10.4 | 0.00 | 0.05 | 0.00 | 68 | 1016.0 |
| 20260904161014 | 91 | 217 | 4.3 | 10.4 | 0.00 | 0.05 | 0.00 | 71 | 1016.1 |
| 20260904155535 | 92 | 177 | 4.3 | 10.4 | 0.00 | 0.05 | 0.00 | 69 | 1016.2 |
| 20260904154532 | 91 | 163 | 4.3 | 10.4 | 0.00 | 0.05 | 0.00 | 70 | 1016.3 |
| 20260904154016 | 91 | 119 | 4.3 | 8.7 | 0.00 | 0.05 | 0.00 | 72 | 1016.2 |
| 20260904152934 | 89 | 214 | 4.3 | 9.6 | 0.00 | 0.05 | 0.00 | 73 | 1016.1 |
| 20260904152609 | 90 | 173 | 4.3 | 9.6 | 0.00 | 0.05 | 0.00 | 73 | 1016.2 |
| 20260904150532 | 89 | 119 | 4.3 | 9.6 | 0.00 | 0.05 | 0.00 | 76 | 1016.2 |
| 20260904145532 | 89 | 115 | 3.5 | 8.7 | 0.00 | 0.05 | 0.00 | 76 | 1016.1 |
| 20260904144517 | 88 | 198 | 3.5 | 7.8 | 0.00 | 0.05 | 0.00 | 77 | 1016.0 |
| 20260904144439 | 88 | 138 | 1.7 | 7.0 | 0.00 | 0.05 | 0.00 | 79 | 1016.0 |
| 20260904142519 | 87 | 194 | 2.6 | 6.1 | 0.00 | 0.05 | 0.00 | 80 | 1015.9 |
| 20260904141517 | 86 | 190 | 1.7 | 6.1 | 0.00 | 0.05 | 0.00 | 84 | 1015.8 |
| 20260904140517 | 86 | 197 | 2.6 | 7.0 | 0.00 | 0.05 | 0.00 | 85 | 1015.8 |
| 20260904135513 | 85 | 184 | 1.7 | 5.2 | 0.00 | 0.05 | 0.00 | 86 | 1015.7 |
| 20260904134514 | 84 | 180 | 3.5 | 7.0 | 0.00 | 0.05 | 0.00 | 86 | 1015.6 |
| 20260904133514 | 84 | 177 | 1.7 | 6.1 | 0.00 | 0.05 | 0.00 | 88 | 1015.7 |
| 20260904132513 | 83 | 175 | 0.9 | 4.3 | 0.00 | 0.05 | 0.00 | 89 | 1015.7 |
| 20260904131514 | 82 | 210 | 1.7 | 5.2 | 0.00 | 0.05 | 0.00 | 91 | 1015.6 |
| 20260904130513 | 82 | 206 | 0.9 | 2.6 | 0.00 | 0.05 | 0.00 | 92 | 1015.6 |
| 20260904125512 | 81 | 208 | 1.7 | 5.2 | 0.00 | 0.05 | 0.00 | 93 | 1015.5 |
| 20260904124514 | 80 | 163 | 0.9 | 2.6 | 0.00 | 0.05 | 0.00 | 94 | 1015.4 |
| 20260904123505 | 80 | 164 | 0.9 | 2.6 | 0.00 | 0.05 | 0.00 | 95 | 1015.4 |
| 20260904122505 | 79 | 164 | 0.0 | 0.0 | 0.00 | 0.05 | 0.00 | 95 | 1015.2 |
| 20260904121505 | 78 | 164 | 0.0 | 0.0 | 0.00 | 0.05 | 0.00 | 95 | 1015.1 |
| 20260904120506 | 78 | 154 | 0.0 | 0.0 | 0.00 | 0.05 | 0.00 | 95 | 1015.1 |
| 20260904115507 | 77 | 154 | 0.0 | 0.0 | 0.00 | 0.05 | 0.00 | 95 | 1015.0 |
| 20260904114506 | 76 | 154 | 0.0 | 0.0 | 0.00 | 0.05 | 0.00 | 95 | 1015.0 |
| 20260904113505 | 75 | 154 | 0.0 | 0.0 | 0.00 | 0.05 | 0.00 | 95 | 1014.9 |
| 20260904112506 | 75 | 154 | 0.0 | 0.0 | 0.00 | 0.05 | 0.00 | 95 | 1014.8 |
| 20260904111506 | 75 | 154 | 0.0 | 0.0 | 0.00 | 0.05 | 0.00 | 95 | 1014.8 |
| 20260904110506 | 75 | 154 | 0.0 | 0.0 | 0.00 | 0.05 | 0.00 | 95 | 1014.7 |
| 20260904105502 | 75 | 154 | 0.0 | 0.0 | 0.00 | 0.05 | 0.00 | 94 | 1014.6 |
| 20260904104502 | 75 | 154 | 0.0 | 0.0 | 0.00 | 0.05 | 0.00 | 95 | 1014.4 |
| 20260904103503 | 75 | 154 | 0.0 | 0.0 | 0.00 | 0.05 | 0.00 | 94 | 1014.5 |
| 20260904102502 | 75 | 154 | 0.0 | 0.0 | 0.00 | 0.05 | 0.00 | 94 | 1014.4 |
| 20260904101502 | 75 | 154 | 0.0 | 0.0 | 0.00 | 0.05 | 0.00 | 95 | 1014.3 |
| 20260904100501 | 75 | 154 | 0.0 | 0.0 | 0.00 | 0.05 | 0.00 | 95 | 1014.2 |
| 20260904095459 | 75 | 154 | 0.0 | 0.0 | 0.00 | 0.05 | 0.00 | 95 | 1014.0 |
| 20260904094458 | 75 | 154 | 0.0 | 0.0 | 0.00 | 0.05 | 0.00 | 95 | 1014.0 |
| 20260904093459 | 75 | 154 | 0.0 | 0.0 | 0.00 | 0.05 | 0.00 | 95 | 1014.0 |
| 20260904092458 | 75 | 154 | 0.0 | 0.0 | 0.00 | 0.05 | 0.00 | 94 | 1014.0 |
| 20260904091937 | 75 | 154 | 0.0 | 0.0 | 0.00 | 0.05 | 0.00 | 95 | 1014.0 |
| 20260904090457 | 75 | 154 | 0.0 | 0.0 | 0.00 | 0.05 | 0.00 | 94 | 1013.9 |
| 20260904085944 | 76 | 154 | 0.0 | 0.0 | 0.00 | 0.05 | 0.00 | 94 | 1013.9 |
| 20260904084949 | 76 | 154 | 0.0 | 0.0 | 0.00 | 0.05 | 0.00 | 94 | 1013.9 |
| 20260904083932 | 76 | 154 | 0.0 | 0.0 | 0.00 | 0.05 | 0.00 | 95 | 1013.8 |
| 20260904083422 | 76 | 154 | 0.0 | 0.0 | 0.00 | 0.05 | 0.00 | 94 | 1013.9 |
| 20260904081450 | 76 | 154 | 0.0 | 0.0 | 0.00 | 0.05 | 0.00 | 94 | 1013.9 |
| 20260904080452 | 76 | 154 | 0.0 | 0.0 | 0.00 | 0.05 | 0.00 | 94 | 1013.9 |
| 20260904075451 | 76 | 154 | 0.0 | 0.0 | 0.00 | 0.05 | 0.00 | 94 | 1013.9 |
| 20260904074451 | 76 | 154 | 0.0 | 0.0 | 0.00 | 0.05 | 0.00 | 94 | 1013.8 |
| 20260904073436 | 76 | 154 | 0.0 | 1.7 | 0.00 | 0.05 | 0.00 | 94 | 1013.8 |
| 20260904072437 | 76 | 154 | 0.0 | 0.0 | 0.00 | 0.05 | 0.00 | 94 | 1013.9 |
| 20260904071438 | 76 | 154 | 0.0 | 0.0 | 0.00 | 0.05 | 0.00 | 94 | 1013.8 |
| 20260904070438 | 76 | 154 | 0.0 | 0.0 | 0.00 | 0.05 | 0.00 | 94 | 1013.8 |
| 20260904065436 | 76 | 154 | 0.0 | 0.0 | 0.00 | 0.05 | 0.00 | 94 | 1013.8 |
| 20260904064912 | 76 | 154 | 0.0 | 0.0 | 0.00 | 0.05 | 0.00 | 94 | 1013.8 |
| 20260904063434 | 76 | 154 | 0.0 | 0.9 | 0.00 | 0.05 | 0.00 | 94 | 1013.8 |
| 20260904062435 | 77 | 154 | 0.9 | 2.6 | 0.00 | 0.05 | 0.00 | 94 | 1013.9 |
| 20260904061432 | 77 | 154 | 0.0 | 1.7 | 0.00 | 0.05 | 0.00 | 94 | 1014.1 |
| 20260904060915 | 77 | 154 | 0.0 | 0.0 | 0.00 | 0.05 | 0.00 | 94 | 1014.2 |
| 20260904055433 | 77 | 154 | 0.0 | 0.0 | 0.00 | 0.05 | 0.00 | 94 | 1014.3 |
| 20260904054432 | 77 | 154 | 0.0 | 0.9 | 0.00 | 0.05 | 0.00 | 94 | 1014.4 |
| 20260904053430 | 77 | 154 | 0.0 | 1.7 | 0.00 | 0.05 | 0.00 | 94 | 1014.5 |
| 20260904052906 | 77 | 154 | 0.0 | 2.6 | 0.00 | 0.05 | 0.00 | 94 | 1014.5 |
| 20260904051913 | 77 | 154 | 0.0 | 0.0 | 0.00 | 0.05 | 0.00 | 94 | 1014.5 |
| 20260904050432 | 77 | 154 | 0.0 | 0.0 | 0.00 | 0.05 | 0.00 | 94 | 1014.6 |
| 20260904045426 | 77 | 154 | 0.0 | 0.0 | 0.00 | 0.05 | 0.00 | 94 | 1014.6 |
| 20260904045353 | 77 | 154 | 0.0 | 0.0 | 0.00 | 0.05 | 0.00 | 94 | 1014.7 |
| 20260904043913 | 77 | 154 | 0.0 | 0.0 | 0.00 | 0.05 | 0.00 | 94 | 1014.8 |
| 20260904042426 | 77 | 154 | 0.0 | 0.0 | 0.00 | 0.05 | 0.00 | 94 | 1014.7 |
| 20260904041427 | 77 | 154 | 0.0 | 0.0 | 0.00 | 0.05 | 0.00 | 94 | 1014.7 |
| 20260904040427 | 77 | 154 | 0.0 | 0.0 | 0.00 | 0.05 | 0.00 | 94 | 1014.7 |
| 20260904035425 | 77 | 154 | 0.0 | 0.0 | 0.00 | 0.05 | 0.05 | 94 | 1014.6 |
| 20260904034419 | 77 | 154 | 0.0 | 0.0 | 0.01 | 0.05 | 0.05 | 94 | 1014.7 |
| 20260904033420 | 77 | 154 | 0.0 | 0.0 | 0.01 | 0.05 | 0.05 | 93 | 1014.8 |
| 20260904032419 | 77 | 154 | 0.0 | 0.0 | 0.01 | 0.05 | 0.05 | 93 | 1014.7 |
| 20260904031417 | 77 | 154 | 0.0 | 1.7 | 0.01 | 0.05 | 0.05 | 93 | 1014.6 |
| 20260904030904 | 77 | 154 | 0.9 | 3.5 | 0.01 | 0.05 | 0.05 | 93 | 1014.6 |
| 20260904025405 | 77 | 155 | 0.9 | 2.6 | 0.01 | 0.05 | 0.05 | 93 | 1014.6 |
| 20260904024405 | 77 | 146 | 0.9 | 3.5 | 0.00 | 0.04 | 0.04 | 93 | 1014.4 |
| 20260904023403 | 77 | 156 | 0.9 | 4.3 | 0.00 | 0.04 | 0.04 | 93 | 1014.5 |
| 20260904022403 | 78 | 149 | 1.7 | 3.5 | 0.00 | 0.04 | 0.04 | 93 | 1014.4 |
| 20260904021403 | 78 | 148 | 0.9 | 3.5 | 0.00 | 0.04 | 0.04 | 93 | 1014.4 |
| 20260904020403 | 78 | 152 | 0.9 | 2.6 | 0.00 | 0.04 | 0.04 | 93 | 1014.4 |
| 20260904015404 | 78 | 152 | 0.9 | 2.6 | 0.00 | 0.04 | 0.04 | 93 | 1014.6 |
| 20260904014845 | 78 | 152 | 0.0 | 2.6 | 0.00 | 0.04 | 0.04 | 93 | 1014.6 |
| 20260904013401 | 78 | 152 | 0.9 | 2.6 | 0.00 | 0.04 | 0.04 | 93 | 1014.7 |
| 20260904012400 | 78 | 152 | 0.9 | 2.6 | 0.00 | 0.04 | 0.04 | 93 | 1014.6 |
| 20260904011401 | 78 | 152 | 0.9 | 2.6 | 0.01 | 0.04 | 0.04 | 93 | 1014.5 |
| 20260904010400 | 77 | 152 | 0.0 | 1.7 | 0.02 | 0.04 | 0.04 | 93 | 1014.4 |
| 20260904005401 | 78 | 152 | 0.9 | 3.5 | 0.03 | 0.04 | 0.04 | 93 | 1014.3 |
| 20260904004356 | 77 | 152 | 0.9 | 2.6 | 0.03 | 0.04 | 0.04 | 92 | 1014.2 |
| 20260904003834 | 77 | 152 | 0.0 | 1.7 | 0.04 | 0.04 | 0.04 | 92 | 1014.2 |
| 20260904002357 | 78 | 152 | 0.0 | 0.9 | 0.04 | 0.04 | 0.04 | 92 | 1014.2 |
| 20260904001356 | 78 | 152 | 0.0 | 1.7 | 0.03 | 0.03 | 0.03 | 92 | 1014.2 |
| 20260904000358 | 78 | 152 | 0.9 | 3.5 | 0.02 | 0.02 | 0.02 | 92 | 1014.0 |
| 20260903235840 | 78 | 154 | 0.9 | 3.5 | 0.01 | 0.01 | 0.01 | 91 | 1014.0 |
| 20260903234356 | 78 | 163 | 1.7 | 3.5 | 0.01 | 0.01 | 0.01 | 90 | 1014.0 |
| 20260903233355 | 78 | 142 | 1.7 | 7.0 | 0.00 | 0.00 | 0.00 | 89 | 1014.1 |
| 20260903232353 | 78 | 156 | 0.9 | 3.5 | 0.00 | 0.00 | 0.00 | 88 | 1014.3 |
| 20260903231355 | 78 | 157 | 0.9 | 5.2 | 0.00 | 0.00 | 0.00 | 86 | 1014.2 |
| 20260903230353 | 79 | 136 | 3.5 | 7.8 | 0.00 | 0.00 | 0.00 | 86 | 1014.1 |
| 20260903225839 | 79 | 149 | 2.6 | 7.0 | 0.00 | 0.00 | 0.00 | 86 | 1013.9 |
| 20260903224355 | 79 | 152 | 1.7 | 7.8 | 0.00 | 0.00 | 0.00 | 86 | 1013.9 |
| 20260903223823 | 79 | 158 | 3.5 | 8.7 | 0.00 | 0.00 | 0.00 | 84 | 1013.9 |
| 20260903222348 | 79 | 158 | 3.5 | 8.7 | 0.00 | 0.00 | 0.00 | 82 | 1013.8 |
| 20260903221347 | 81 | 173 | 3.5 | 7.8 | 0.00 | 0.00 | 0.00 | 82 | 1013.6 |
| 20260903220831 | 82 | 140 | 5.2 | 11.3 | 0.00 | 0.00 | 0.00 | 80 | 1013.5 |
| 20260903215348 | 84 | 150 | 3.5 | 11.3 | 0.00 | 0.00 | 0.00 | 80 | 1013.5 |
| 20260903214825 | 85 | 129 | 4.3 | 9.6 | 0.00 | 0.00 | 0.00 | 80 | 1013.1 |
| 20260903213343 | 85 | 100 | 4.3 | 10.4 | 0.00 | 0.00 | 0.00 | 80 | 1013.0 |